Content
SEND FEEDBACK

Daily
Averages
Monthly
Summary
Italy

SASSARI, ITALY


Home > Europe > Italy
Elevation: 735 feet     Latitude: 40 42N     Longitude: 008 36E

WEATHER
 
SELECT A DAY
Number of Records: 260,524;   Date Range: 7/1/96 - 7/28/14
 
SHARE

PRINT THIS DATA

[ ← Previous Day ]
WEATHER ALMANAC - JANUARY 31, 2013
[ Next Day → ]
[ °C ]   °F
Weather ElementAverageHighLow
Temperature55.7 °F62.6 °F (11:50 am)50 °F (12:50 am)
Dewpoint50 °F53.6 °F (9:20 am)44.6 °F (10:50 am)
Humidity82.7 %100 % (12:50 am)55 % (10:50 am)
Barometer30.30 in30.33 in (10:50 am)30.24 in (3:20 am)
Wind Speed7.7 mph11.5 mph (2:20 pm)
Weather ElementAverage
Visibility6.2 mi
Wind DirectionSSW (216.7 °)

Weather ElementTotal
Precipitation---
Heating Degree Days8.7 (Base 65)
Growing Degree Days6.3 (Base 50)
Averaged from 45 records on January 31, 2013
WEATHER CONDITIONS BREAKOUT
WIND DIRECTION BREAKOUT
WEATHER BY HOUR - JANUARY 31, 2013
[ °C ]   °F
Local TimeTemperatureDewpointHumidityBarometerVisibilityWind DirectionWind SpeedGust SpeedPrecipitationEventsConditions
12:50 AM50.0 °F50.0 °F100 %30.27 in6.2 miSSW (210°)6.9 mphPartly Cloudy
1:20 AM51.8 °F51.8 °F100 %30.27 in6.2 miSW (220°)10.4 mphPartly Cloudy
1:50 AM51.8 °F51.8 °F100 %30.27 in6.2 miSW (230°)9.2 mphPartly Cloudy
2:20 AM53.6 °F51.8 °F94 %30.27 in6.2 miSSW (210°)8.1 mphPartly Cloudy
2:50 AM53.6 °F51.8 °F94 %30.27 in6.2 miSSW (210°)6.9 mphPartly Cloudy
3:20 AM53.6 °F51.8 °F94 %30.24 in6.2 miSSW (210°)6.9 mphPartly Cloudy
3:50 AM51.8 °F50.0 °F94 %30.24 in6.2 miSW (220°)6.9 mphPartly Cloudy
4:20 AM51.8 °F48.2 °F88 %30.24 in6.2 miSW (220°)8.1 mphPartly Cloudy
4:50 AM51.8 °F50.0 °F94 %30.24 in6.2 miSW (230°)9.2 mphPartly Cloudy
5:20 AM53.6 °F51.8 °F94 %30.24 in6.2 miSW (220°)9.2 mphPartly Cloudy
5:50 AM53.6 °F51.8 °F94 %30.24 in6.2 miSSW (200°)8.1 mphPartly Cloudy
6:20 AM53.6 °F51.8 °F94 %30.24 in6.2 miSouth (190°)9.2 mphPartly Cloudy
6:50 AM51.8 °F51.8 °F100 %30.27 in6.2 miSSW (200°)9.2 mphPartly Cloudy
7:20 AM53.6 °F51.8 °F94 %30.27 in6.2 miSSW (200°)10.4 mphPartly Cloudy
7:50 AM53.6 °F51.8 °F94 %30.27 inSSW (200°)10.4 mphClear
8:20 AM55.4 °F51.8 °F88 %30.30 inSSE (150°)4.6 mphClear
8:50 AM55.4 °F51.8 °F88 %30.30 inVariable3.5 mphClear
9:20 AM59.0 °F53.6 °F82 %30.30 inVariable2.3 mphClear
10:20 AM60.8 °F48.2 °F63 %30.30 inWNW (290°)6.9 mphClear
10:50 AM60.8 °F44.6 °F55 %30.33 inNNW (330°)8.1 mphClear
11:20 AM60.8 °F46.4 °F59 %30.33 inNW (320°)9.2 mphClear
11:50 AM62.6 °F48.2 °F59 %30.33 inWNW (300°)8.1 mphClear
12:20 PM62.6 °F46.4 °F55 %30.33 inNW (310°)8.1 mphClear
12:50 PM60.8 °F50.0 °F68 %30.33 inWNW (300°)9.2 mphClear
1:20 PM60.8 °F46.4 °F59 %30.33 inWNW (300°)8.1 mphClear
1:50 PM60.8 °F50.0 °F68 %30.33 inWest (280°)10.4 mphClear
2:20 PM60.8 °F46.4 °F59 %30.33 inNNW (330°)11.5 mphClear
2:50 PM60.8 °F50.0 °F68 %30.33 inWest (280°)8.1 mphClear
3:20 PM60.8 °F50.0 °F68 %30.30 inWest (280°)4.6 mphClear
3:50 PM60.8 °F50.0 °F68 %30.30 inWest (280°)5.8 mphClear
4:20 PM59.0 °F48.2 °F67 %30.30 inWest (270°)5.8 mphClear
4:50 PM59.0 °F48.2 °F67 %30.30 inWest (280°)4.6 mphClear
5:20 PM57.2 °F48.2 °F72 %30.30 inVariable1.2 mphClear
5:50 PM55.4 °F46.4 °F72 %30.33 inVariable1.2 mphClear
6:50 PM53.6 °F48.2 °F82 %30.33 inSSW (210°)6.9 mphClear
7:20 PM51.8 °F48.2 °F88 %30.33 inSSW (200°)6.9 mphClear
7:50 PM53.6 °F50.0 °F88 %30.33 inSSW (210°)6.9 mphClear
8:20 PM51.8 °F50.0 °F94 %30.33 inSSW (210°)8.1 mphClear
8:50 PM51.8 °F50.0 °F94 %30.33 inSSW (210°)6.9 mphClear
9:20 PM53.6 °F50.0 °F88 %30.30 inSSW (210°)8.1 mphClear
9:50 PM53.6 °F51.8 °F94 %30.33 inSSW (200°)9.2 mphClear
10:20 PM53.6 °F51.8 °F94 %30.30 inSSW (200°)11.5 mphClear
10:50 PM53.6 °F51.8 °F94 %30.30 inSSW (210°)11.5 mphClear
11:20 PM51.8 °F51.8 °F100 %30.30 inSSW (210°)9.2 mphClear
11:50 PM53.6 °F51.8 °F94 %30.30 inSSW (210°)9.2 mphClear
Hourly data recorded from LIEA, located miles away from Sassari, Italy







STORIES FROM OUR PARTNERS